Location: Gro�sch�nbrunn
(49.5760°N, 11.8868°E)
Time: 11:54:01
(UTC+00:00)

Cosmos 1634 Rocket - Pass Details

Date: 18 September 2020
Orbit: 961 x 991 km, 82.9° (Epoch: 23 October)

Event Time Altitude Azimuth Distance (km) Brightness Sun altitude
Exits shadow 19:34:24 35° 155° (SSE) 1,493 4.5 -21.8°
Maximum altitude 19:36:52 59° 93° (E) 1,105 4.0 -22.1°
Drops below altitude 10° 19:42:56 10° 16° (NNE) 2,717 6.5 -23.0°
Sets 19:45:29 0° 13° (NNE) 3,672 7.3 -23.3°
